Regional Weather Roundup
Issued by NWS

Home | Current Version | Previous Version | Graphics & Text | Print | Product List | Glossary On
Versions: 1 2 3 4 5 6 7 8 9 10 11 12 13 14 15 16 17 18 19 20 21 22 23 24 25 26 27 28 29 30 31 32 33 34 35 36 37 38 39 40 41 42 43 44 45 46 47 48 49 50
000
ASUS45 KBOI 012010
RWRID
WEATHER ROUNDUP FOR IDAHO
NATIONAL WEATHER SERVICE BOISE ID
200 PM MDT MON SEP 01 2014

NOTE: "FAIR" INDICATES FEW OR NO CLOUDS BELOW 12000 FEET
WITH NO SIGNIFICANT WEATHER AND/OR OBSTRUCTIONS TO VISIBILITY

IDZ012-014-012100-
SOUTHWEST IDAHO


CITY           SKY/WX    TMP DP  RH WIND       PRES   REMARKS
BOISE          SUNNY     71  38  29 W8        30.08F
CALDWELL       SUNNY     72  39  30 NW10      30.09F
MOUNTAIN HOME  SUNNY     73  40  30 VRB5      30.07F
$$

IDZ016-017-012100-
SOUTHCENTRAL IDAHO


CITY           SKY/WX    TMP DP  RH WIND       PRES   REMARKS
BURLEY         SUNNY     70  41  34 W12G23    30.09F
JEROME         SUNNY     69  39  33 SW14G22   30.10F
TWIN FALLS     SUNNY     72  41  32 W15       30.10F
$$

IDZ019>023-012100-
SOUTHEAST IDAHO


CITY           SKY/WX    TMP DP  RH WIND       PRES   REMARKS
IDAHO FALLS    MOSUNNY   68  35  29 SW13      30.10S
POCATELLO      MOSUNNY   71  38  29 W15G24    30.10F
REXBURG        SUNNY     65  40  39 SW14      30.10F
$$

IDZ006-010-011-018-031-032-012100-
CENTRAL IDAHO MOUNTAINS


CITY           SKY/WX    TMP DP  RH WIND       PRES   REMARKS
MCCALL         SUNNY     65  38  36 VRB6      30.10F
HAILEY         SUNNY     68  37  32 S8G17     30.10F
STANLEY          N/A     65  25  22 NW12G17   30.15F
SALMON         SUNNY     66  39  37 N9        30.03F
CHALLIS        SUNNY     68  31  25 SE6       30.06F
$$

IDZ002-004-006-007-026-012100-
NORTHERN IDAHO


CITY           SKY/WX    TMP DP  RH WIND       PRES   REMARKS
LEWISTON       PTSUNNY   73  41  31 NW7       30.02F
LOWELL           N/A     75  42  30 MISG      30.01F
COEUR D`ALENE  MOSUNNY   70  43  37 S9G17     30.02F
MULLAN PASS    CLOUDY    48  37  65 VRB6      30.12R
$$



USA.gov is the U.S. government's official web portal to all federal, state and local government web resources and services.